FLOCK 1C-3

Last updated on Wed Feb 14 2018 16:18:49 GMT+0000 (Greenwich Mean Time)

1 40041U 14033AH 18045.38963147 .00000699 00000-0 80207-4 0 9994 2 40041 97.9249 322.9779 0012152 212.2153 147.8294 14.89021153198521
UTC large
Height (km)
Speed (km/s)
/
Latitude / Longitude
Inclination (degrees)
Orbital Period (minutes)
Azimuth
Elevation
Range (km)
Doppler Factor

Next 0 passes for location: London (51.5072 / 0.1276)

Sorry there are no passes over London.